ECMWFFLT1_925_rhum_342.txt.gz
RH
78 77 78 76 73 70 67 65 66 67 63 58 54 50 46 42 31 22 23 24 23 22 17 13 14 16 18 19 17 16 16 15 16 13 10 11 11 10 15 12 12 35 59 55 42 34 25 17 17 16 15 18 17 17 19 21 21 22 22 23 24 24 24
77 78 78 77 74 70 65 61 59 58 55 50 46 44 40 31 21 17 18 18 18 17 15 14 15 16 17 16 14 14 14 13 12 11 10 11 11 11 13 15 17 27 40 39 31 24 20 18 16 15 17 18 17 19 20 18 20 22 24 28 28 24 23
76 77 78 77 74 69 63 55 49 45 41 36 33 32 29 22 16 15 16 16 17 18 18 18 18 17 16 15 14 13 14 14 13 12 11 11 12 12 13 14 15 20 29 32 29 25 20 17 14 15 18 18 18 22 23 21 23 27 29 29 27 23 22
75 76 75 73 70 64 56 48 41 35 30 26 23 21 20 18 16 16 17 18 19 20 20 20 18 17 16 15 14 14 15 15 14 13 13 13 14 13 13 15 14 16 23 33 39 36 24 16 16 17 18 19 19 20 21 22 24 28 30 28 26 24 21
74 73 71 67 62 55 47 40 34 28 23 20 18 17 16 16 16 17 18 20 22 24 25 24 22 20 18 16 15 15 15 15 15 15 15 14 15 16 16 17 17 16 18 25 35 37 26 17 17 18 18 21 21 19 19 21 23 26 29 29 25 22 23
71 69 65 60 53 45 37 31 26 21 18 17 16 16 15 15 17 20 23 26 29 30 30 28 24 21 19 18 17 16 15 15 15 15 16 15 16 18 18 19 21 22 20 20 25 28 26 23 22 20 21 25 26 24 25 30 33 33 34 36 30 21 22
66 63 58 51 43 34 28 23 20 18 16 16 15 14 16 19 22 26 29 31 32 32 30 28 24 21 19 17 16 15 14 15 15 15 16 18 19 21 23 26 28 27 26 26 25 26 26 26 26 25 24 25 27 29 35 46 55 51 45 47 45 34 27
61 56 49 40 31 25 22 20 18 16 15 15 16 19 22 25 28 30 32 33 33 32 29 26 23 20 18 16 16 15 15 15 15 16 17 19 21 24 26 30 33 33 32 31 29 28 28 28 26 26 25 25 28 37 47 58 72 74 64 60 56 43 34
54 47 38 30 25 22 20 19 17 17 18 19 22 25 28 32 34 36 36 35 33 31 27 24 22 19 18 17 16 16 16 16 17 17 18 19 21 24 27 31 36 38 36 34 32 32 37 41 33 26 30 33 35 48 57 58 68 78 75 70 63 44 33
44 37 31 28 26 25 23 22 22 22 24 27 31 35 38 40 41 39 37 34 31 29 27 24 22 20 19 18 17 17 17 17 18 18 18 19 20 22 25 30 36 39 40 42 43 44 57 67 50 29 34 43 41 49 57 58 68 79 76 75 75 61 43
39 35 32 30 31 31 30 30 30 32 36 39 43 45 45 44 42 39 37 34 32 29 26 23 21 20 19 18 18 18 18 18 18 19 20 20 20 21 23 29 37 44 49 51 51 53 64 75 60 32 30 42 45 49 58 66 76 81 78 80 89 88 69
40 38 36 36 38 39 39 40 43 47 50 51 51 50 49 47 44 41 38 34 30 26 23 22 21 19 19 19 19 19 19 19 20 21 22 22 22 23 25 32 40 46 50 52 56 58 55 59 57 40 32 43 55 64 70 71 73 76 82 88 95 100 88
44 43 43 45 46 48 50 54 57 59 60 59 58 56 54 50 45 39 35 30 27 24 22 21 20 20 20 20 21 20 20 21 22 23 23 23 24 24 26 34 40 43 45 48 57 62 47 40 50 49 39 44 60 71 71 71 77 84 92 97 98 101 95
49 49 50 52 55 58 61 64 66 67 66 64 62 57 52 47 41 35 31 28 26 25 24 23 22 22 21 21 21 21 20 22 22 22 24 22 23 25 26 32 37 38 40 41 48 54 43 35 47 53 46 45 56 68 74 82 93 97 99 102 100 100 99
52 53 56 60 63 66 69 71 72 71 68 64 59 54 49 43 38 34 30 29 29 28 27 27 25 23 23 22 21 21 21 22 22 22 24 24 24 25 26 30 32 33 36 39 42 46 43 38 41 43 43 49 61 78 90 96 100 100 100 101 99 100 101
58 60 63 68 71 73 75 76 74 71 68 66 62 53 48 44 38 35 34 32 33 31 29 28 25 24 24 22 22 23 22 23 24 24 25 24 24 26 25 27 30 32 34 38 40 42 43 40 42 53 67 78 88 98 101 100 100 101 101 101 101 100 95
66 67 70 75 78 79 78 76 74 71 68 72 71 56 47 45 40 38 37 34 33 31 28 27 25 23 23 22 23 25 25 26 27 26 27 28 26 28 26 23 27 31 34 39 43 44 44 43 50 66 78 82 86 92 95 97 99 97 95 99 103 100 91
73 76 78 80 81 81 79 76 76 71 66 70 72 58 47 46 43 39 37 34 32 30 26 25 23 22 22 22 24 27 28 30 30 29 31 32 32 34 30 23 27 35 38 42 45 44 45 45 46 52 53 50 53 58 64 76 83 84 90 99 104 101 97
79 82 84 84 83 82 81 77 74 70 64 64 64 56 48 46 42 38 36 32 30 28 25 23 22 21 22 23 26 28 29 31 32 32 33 39 47 49 38 28 36 47 50 53 53 48 47 46 43 46 47 44 44 46 52 66 76 82 93 102 103 100 101
84 85 85 85 84 81 79 75 71 67 63 60 58 53 46 43 39 35 32 30 27 25 23 22 22 22 24 25 26 28 29 30 33 34 37 46 54 51 39 38 51 62 65 69 67 61 58 54 50 53 53 50 52 55 60 69 74 79 89 99 103 101 100
88 86 85 84 82 78 76 73 69 66 62 58 55 49 42 37 34 30 28 26 25 23 22 22 22 23 25 27 28 29 30 30 32 36 41 47 48 47 50 60 69 71 74 80 79 76 73 67 64 67 68 69 73 73 71 74 76 79 85 94 101 102 99
88 86 84 81 78 75 72 70 67 63 59 53 48 43 36 31 29 27 26 26 25 23 22 22 23 25 27 29 30 31 31 31 32 37 44 49 51 56 66 76 80 81 82 84 85 87 88 83 79 79 79 81 82 78 76 80 81 83 87 90 93 98 100
87 84 81 78 75 72 69 66 62 58 53 47 41 36 31 28 27 26 26 26 25 23 23 24 25 27 29 30 31 31 31 31 33 38 45 51 58 65 72 79 84 86 84 83 87 95 100 95 88 85 83 79 76 75 79 83 85 87 88 88 88 91 94
83 80 76 73 70 68 64 61 57 52 46 40 34 31 28 26 26 26 26 26 25 24 25 26 27 28 29 29 30 30 31 32 34 37 42 47 54 60 66 71 73 72 74 83 93 100 101 92 80 75 74 70 71 78 83 86 88 88 87 86 87 88 89
78 75 72 69 66 63 60 56 51 45 39 33 30 29 28 26 25 26 27 26 26 26 26 27 28 29 30 31 32 32 33 34 35 37 41 45 50 55 58 61 64 66 74 85 92 95 95 85 71 67 69 70 77 86 86 84 86 86 84 85 87 88 88
77 74 71 68 65 61 55 50 44 38 33 31 29 28 27 26 26 27 28 27 27 28 29 29 30 32 33 35 36 36 37 36 38 42 46 48 52 55 58 62 66 72 80 86 89 90 89 80 70 71 75 78 85 90 84 81 87 88 85 83 85 90 91
77 74 70 67 63 57 50 44 39 36 33 31 29 27 26 27 27 28 29 29 29 30 32 33 35 38 39 40 40 40 40 41 45 49 50 51 53 58 62 65 69 74 80 83 83 84 83 78 77 81 82 83 90 91 82 80 89 94 91 86 89 96 98
73 68 64 60 56 51 47 42 39 36 33 29 26 26 27 29 30 31 32 32 33 35 37 39 42 43 43 44 44 44 46 48 52 54 53 54 58 63 66 69 72 77 78 76 76 79 81 80 82 86 86 88 94 93 81 77 86 93 92 89 93 102 104
65 60 55 51 49 47 47 44 38 33 30 28 28 30 31 31 32 34 35 36 38 42 44 46 47 47 47 47 49 51 51 52 54 56 57 59 63 67 70 72 75 76 74 72 75 81 84 85 87 89 90 93 96 91 81 79 85 89 88 90 96 101 101
58 53 50 49 48 47 45 41 35 32 33 34 35 36 37 37 37 39 41 44 47 50 51 50 50 50 49 51 55 58 58 58 62 66 67 67 69 72 73 74 75 75 73 75 80 84 85 87 90 91 90 93 94 89 81 81 86 89 91 94 99 101 99
58 56 55 53 52 49 46 42 38 37 38 38 38 39 40 40 40 42 45 48 52 54 54 53 54 55 55 58 63 67 66 68 73 74 71 70 71 72 73 75 74 73 75 79 83 85 87 88 90 90 89 89 90 89 86 86 91 95 97 98 98 100 100
64 61 57 53 50 47 45 43 41 41 40 38 38 39 39 40 42 44 46 50 55 58 57 58 62 64 65 68 72 73 73 74 75 73 71 73 75 73 72 73 73 73 78 84 84 85 86 87 86 88 89 89 90 93 95 95 96 97 98 98 97 99 100
65 60 56 53 52 50 48 47 45 42 39 37 36 37 38 41 43 44 46 50 57 63 65 66 71 73 73 74 76 75 73 73 73 73 76 79 79 76 72 71 74 78 84 86 85 85 87 87 86 88 91 93 94 96 99 100 98 97 98 100 100 100 100
66 63 60 58 55 52 50 47 44 40 36 35 37 38 41 45 47 48 49 54 61 68 71 74 78 78 75 75 75 73 72 73 74 77 80 80 79 78 76 75 77 81 85 84 84 85 86 85 85 88 91 94 95 97 99 100 99 97 98 100 101 101 100
66 63 61 57 52 48 46 43 40 40 39 40 42 43 47 51 54 53 54 56 61 67 71 75 78 76 73 73 74 72 73 76 77 79 80 79 79 80 81 81 81 82 82 82 84 85 85 84 86 87 89 93 95 97 98 98 96 95 96 97 99 100 99
63 59 55 52 48 45 44 43 43 45 46 45 46 47 50 54 55 54 54 54 55 59 64 69 72 72 71 73 75 74 75 77 78 78 77 78 81 83 85 85 84 82 82 84 86 87 86 87 88 88 88 92 95 95 95 95 94 94 95 96 98 100 100

ECMWFFLT1_925_rhum_348.txt.gz
RH
86 87 89 89 89 90 89 88 87 86 85 84 82 79 76 74 72 68 66 65 64 63 60 55 51 48 45 45 49 55 58 56 52 47 40 36 35 36 39 44 51 69 86 79 67 58 41 27 25 25 25 25 22 20 19 16 14 13 12 12 12 11 11
84 86 88 89 89 90 89 88 87 85 84 82 80 78 76 74 72 69 66 65 62 58 55 50 44 40 37 33 34 38 39 37 34 32 31 33 39 40 41 47 52 62 77 76 60 47 36 28 27 25 25 25 23 21 18 16 14 13 13 13 13 13 12
84 86 88 89 89 89 88 88 86 84 82 80 78 77 74 73 72 68 65 62 59 53 47 41 35 32 29 23 22 24 26 28 30 34 40 44 49 49 44 46 50 53 65 74 63 46 34 29 28 26 24 24 23 20 17 16 15 15 15 15 15 15 14
83 85 87 88 88 89 88 87 86 83 81 79 78 76 73 72 69 64 61 58 53 47 40 34 30 28 25 21 22 27 31 38 44 49 55 56 55 50 40 40 48 48 51 63 66 54 38 30 27 25 24 25 22 19 17 16 16 17 17 17 17 16 14
83 85 87 87 88 88 87 86 85 83 81 79 78 76 73 71 67 62 58 52 45 39 33 27 24 24 25 27 32 41 48 54 59 62 63 59 52 44 34 30 37 44 47 52 57 54 41 31 27 25 25 24 21 18 17 16 17 18 18 18 18 17 16
82 84 86 87 87 87 86 85 84 82 81 79 77 75 72 69 65 59 53 46 40 34 27 21 20 24 32 39 46 53 57 59 60 59 56 52 45 38 30 23 22 31 41 43 41 38 33 30 28 26 27 24 20 19 18 17 17 17 17 17 16 17 16
82 83 85 86 86 86 85 84 84 83 81 79 77 74 70 65 59 52 45 38 32 26 23 23 27 34 40 46 51 52 51 49 46 43 40 38 34 30 26 22 17 18 24 26 26 25 25 26 27 26 26 24 21 21 21 20 18 16 16 16 16 16 16
81 83 84 86 86 86 85 84 83 82 81 79 76 73 69 61 50 41 34 29 25 24 28 31 35 38 40 42 45 45 45 44 41 39 36 33 31 28 24 21 17 15 15 15 17 20 21 24 26 27 26 26 25 25 24 23 21 19 18 16 16 18 17
81 82 83 85 86 86 85 83 81 81 80 78 75 72 65 53 40 30 25 24 26 29 33 36 39 41 42 43 44 44 44 44 43 42 41 36 32 28 23 19 16 15 14 14 15 19 22 23 26 27 27 29 30 27 27 29 28 25 23 18 16 19 20
81 82 83 83 84 84 84 82 79 78 78 77 73 66 55 41 30 25 23 25 32 38 43 47 49 50 50 49 49 48 48 48 46 44 40 35 29 24 19 17 16 15 15 15 16 19 20 21 25 28 27 27 29 31 33 34 32 30 28 23 20 25 28
81 82 82 82 83 83 82 80 77 74 74 74 68 55 40 30 25 25 28 34 43 51 56 57 57 57 56 55 55 54 52 49 44 37 30 25 23 21 18 16 15 15 16 16 17 20 20 21 24 28 29 30 34 38 39 37 34 33 34 36 39 41 38
80 80 81 81 81 81 79 78 74 68 67 67 57 40 29 25 26 30 37 46 55 60 62 62 61 60 58 56 53 48 41 34 28 24 21 19 18 18 18 17 16 16 16 17 19 21 22 24 26 30 33 36 38 41 41 38 36 38 45 55 62 57 43
79 80 80 79 80 79 77 75 68 59 56 53 43 31 27 27 29 37 47 57 63 65 65 64 62 58 52 46 40 34 28 23 21 21 20 19 19 18 18 18 18 18 18 20 21 21 23 27 30 32 35 37 38 39 40 39 40 51 67 76 77 62 40
79 79 78 78 78 77 75 69 60 51 45 41 35 30 29 32 37 47 57 64 67 68 67 64 59 53 44 37 32 28 25 24 23 23 22 20 20 20 19 19 19 19 20 20 21 22 23 26 29 34 38 38 37 37 40 47 54 70 88 93 88 72 48
78 78 78 77 76 75 71 63 54 48 42 37 34 33 35 40 49 57 64 69 70 70 66 60 53 46 39 34 33 32 31 30 28 26 24 23 22 20 20 20 19 20 20 19 21 21 21 24 26 30 36 39 44 52 62 72 77 84 96 99 94 85 68
78 77 77 76 73 72 67 57 52 49 43 39 38 38 43 51 59 66 70 72 70 67 62 55 49 45 42 40 40 39 36 34 31 28 26 24 23 22 21 21 20 20 20 21 22 22 23 25 25 31 48 64 75 83 89 94 95 94 97 101 99 96 86
78 77 76 75 72 68 61 57 57 55 49 45 43 45 54 63 68 72 73 71 68 64 59 55 51 49 48 46 43 40 37 35 31 29 26 24 23 23 22 22 21 22 24 25 26 26 28 30 28 34 59 83 94 98 98 96 92 88 87 93 98 95 86
78 77 77 74 70 65 58 57 62 62 58 56 52 53 64 72 74 76 74 70 67 62 59 56 54 52 49 46 42 39 36 34 30 26 24 23 23 23 22 23 25 27 29 29 29 31 32 34 35 35 44 57 66 75 79 74 68 68 72 81 89 90 87
79 79 78 74 70 65 59 60 67 72 73 70 64 64 73 76 77 77 75 71 66 62 60 59 55 52 48 44 40 36 32 29 26 24 24 23 24 24 23 26 29 31 33 33 32 33 33 36 39 38 36 37 38 42 47 46 48 55 64 77 88 92 97
82 82 80 75 71 68 65 67 75 83 85 80 73 74 78 79 79 79 74 69 65 63 63 60 54 51 47 40 35 30 27 26 24 23 24 23 24 25 25 29 33 34 35 36 34 33 33 33 34 32 29 30 29 30 34 38 46 55 64 79 91 97 103
87 86 83 77 73 73 74 78 82 87 91 88 82 80 82 81 80 78 72 67 65 63 61 59 54 49 43 36 31 27 25 25 24 24 24 23 25 28 28 30 32 33 34 35 33 32 31 29 29 27 25 26 27 30 36 42 50 60 68 76 84 91 102
92 90 86 83 80 79 82 88 91 93 96 97 91 86 85 84 80 76 71 67 66 64 62 58 53 46 38 31 28 27 26 26 25 25 25 25 27 30 31 31 33 35 36 36 35 35 32 28 26 25 25 28 30 33 40 46 53 62 68 72 76 82 95
97 95 92 91 91 90 91 96 99 98 99 100 97 92 89 86 80 75 72 68 66 65 62 56 48 39 32 28 28 28 28 28 27 27 27 28 29 30 32 33 35 37 38 38 41 42 37 29 27 27 28 30 33 37 42 46 52 60 67 71 75 79 86
100 99 97 97 98 99 99 100 100 100 100 100 100 98 95 90 82 76 72 70 67 64 58 51 41 33 29 29 30 31 30 29 29 29 29 28 29 30 31 33 35 37 41 46 49 50 42 31 28 32 34 35 40 43 44 46 50 57 63 67 72 78 82
101 100 100 100 101 101 101 101 100 101 100 100 101 101 98 94 86 78 73 70 65 59 51 43 35 30 30 32 31 31 31 31 30 30 29 29 30 31 32 34 35 39 44 49 49 50 47 39 35 41 47 50 52 51 49 49 50 52 57 64 70 76 79
101 101 100 100 101 101 102 102 101 101 101 100 101 101 99 96 90 81 73 66 59 52 45 38 32 31 32 33 33 33 33 33 33 32 31 32 32 33 35 37 39 41 45 48 48 50 49 43 44 51 56 58 57 53 50 52 55 56 58 63 71 80 81
100 100 99 99 99 100 101 101 101 101 101 101 101 101 98 95 89 77 67 59 53 47 42 36 34 35 35 34 34 35 35 36 37 36 35 35 36 37 39 40 42 44 46 47 48 50 49 47 50 55 55 54 56 56 54 57 64 67 65 65 77 90 91
98 99 97 97 98 100 102 102 101 100 98 97 97 96 92 89 85 75 63 55 50 46 43 40 39 39 37 36 37 38 40 40 40 40 40 40 40 41 42 43 44 45 45 45 48 51 51 51 53 55 54 56 60 61 59 61 69 73 71 73 85 100 101
97 97 96 95 96 98 100 101 99 96 93 92 92 91 88 85 83 75 64 54 50 48 46 45 43 39 38 40 41 43 44 45 46 46 45 44 44 44 45 45 46 45 43 45 51 54 54 55 57 57 58 62 65 64 61 63 70 74 77 84 95 103 104
98 97 96 96 96 97 97 96 94 93 93 93 91 89 87 84 82 76 66 57 53 51 47 44 42 41 42 45 47 49 50 51 52 51 48 46 47 47 46 47 46 45 46 49 54 58 60 62 65 65 65 67 69 66 61 63 70 77 86 96 102 104 102
99 98 97 98 98 98 97 96 95 94 93 93 91 89 87 84 79 73 64 56 51 49 46 45 46 47 49 52 53 54 55 55 56 53 50 48 49 49 49 50 48 47 51 57 61 63 66 68 70 71 71 71 73 72 69 70 75 83 92 100 103 104 104
98 98 97 97 97 96 96 95 94 93 92 92 91 89 86 80 73 66 60 56 53 52 52 52 53 53 54 56 58 58 57 58 57 55 53 54 55 53 52 51 51 53 59 66 68 69 71 71 72 75 76 77 79 82 83 84 85 87 92 100 103 104 104
96 96 95 96 96 95 94 93 91 89 89 90 90 87 80 73 68 64 62 62 62 61 59 58 57 57 58 61 62 61 60 60 59 58 57 58 58 55 53 53 56 62 68 70 71 72 74 74 76 79 83 85 88 90 93 95 96 94 95 101 104 104 102
98 95 94 94 95 95 93 91 87 83 82 83 84 81 76 73 73 75 75 72 68 64 61 59 60 61 62 63 64 63 63 63 62 60 60 59 58 56 56 58 62 67 70 70 73 76 78 79 81 85 89 92 94 96 100 103 103 102 102 104 104 102 101
100 98 96 93 93 92 91 88 85 82 80 80 80 79 79 79 80 80 78 73 68 64 61 61 63 64 63 63 64 64 65 65 63 60 58 57 57 58 61 64 67 70 71 73 77 80 81 83 86 89 92 95 98 101 104 105 104 103 103 105 104 104 104
101 101 99 96 93 91 89 87 85 82 80 79 78 77 76 75 73 70 68 65 63 62 62 63 65 65 65 65 65 65 64 62 61 59 57 57 60 63 66 69 72 73 75 77 80 82 84 87 91 92 94 97 100 102 103 103 103 103 103 104 105 106 106

ECMWFFLT1_925_rhum_354.txt.gz
RH
82 81 80 80 81 81 80 79 78 79 81 83 84 84 84 84 85 87 88 88 87 87 87 87 87 88 90 92 94 93 92 90 86 83 80 77 77 74 73 70 63 65 75 79 74 67 54 39 31 24 16 14 14 15 19 29 50 69 73 69 57 40 29
83 82 80 80 80 79 79 79 78 80 81 83 84 84 84 84 85 87 87 86 86 85 85 85 85 87 89 92 94 94 93 92 89 87 84 80 78 76 74 70 65 68 78 82 77 69 55 40 35 31 24 20 19 20 22 23 27 35 37 33 25 17 12
83 82 80 80 79 79 79 79 79 80 82 83 84 84 84 85 85 86 87 86 85 84 83 83 83 85 88 90 92 92 90 90 90 89 86 83 79 76 73 69 63 65 76 84 81 74 62 50 47 46 38 33 32 31 32 33 29 25 21 17 15 15 14
83 82 82 81 79 78 78 78 79 81 82 83 84 84 84 84 85 85 85 85 84 83 81 81 81 82 85 86 87 87 87 88 89 89 87 83 79 75 71 68 62 59 66 79 84 80 72 65 65 65 55 47 46 43 39 37 32 26 20 16 15 15 14
83 82 81 80 78 77 77 77 79 81 82 83 84 85 85 85 85 85 85 85 83 82 80 78 78 79 81 82 82 83 83 83 84 85 83 79 74 72 69 65 62 57 57 68 82 85 81 77 78 76 67 59 55 50 45 39 31 25 19 16 16 15 14
83 81 79 78 77 77 77 77 80 81 83 84 84 85 86 86 86 85 84 84 82 80 78 75 75 75 75 77 78 78 79 79 79 79 77 73 68 64 60 56 56 56 55 66 80 87 87 85 83 81 76 69 62 53 44 36 29 24 19 17 18 17 15
82 80 78 77 77 77 77 78 81 82 83 84 84 85 85 85 86 85 83 82 80 78 76 74 72 70 69 70 71 73 73 74 76 73 69 67 62 57 55 55 60 62 63 72 82 88 91 88 85 83 78 70 63 53 42 33 30 30 25 20 19 19 17
81 80 79 78 77 77 77 78 81 82 82 83 84 85 85 85 85 84 83 82 80 77 75 72 69 65 63 63 64 66 67 68 70 67 63 62 59 57 60 65 71 74 74 80 85 88 90 88 86 83 75 68 63 57 48 38 35 38 35 25 20 18 17
81 80 78 78 77 76 76 78 81 81 81 82 83 84 85 85 84 83 82 81 79 76 73 69 65 60 57 58 60 60 59 60 60 57 55 56 57 60 64 69 75 79 81 85 86 87 87 84 83 81 74 70 64 56 47 34 32 41 39 31 28 21 15
79 79 78 77 76 75 75 77 78 79 81 83 83 84 85 85 85 84 82 80 78 74 70 65 59 53 50 51 52 50 48 47 48 48 47 49 54 60 65 72 78 81 83 83 82 83 82 78 79 76 69 62 54 49 40 26 28 39 36 32 37 34 22
77 77 77 76 76 75 75 76 77 79 82 83 84 85 85 85 84 83 82 79 76 72 65 58 50 43 42 43 43 44 46 48 51 55 56 57 61 67 70 75 80 82 82 80 78 78 76 73 75 71 63 55 46 43 38 25 24 32 33 33 39 41 36
77 76 76 76 76 76 76 76 77 80 83 83 84 86 86 86 85 83 82 79 75 70 61 51 44 41 42 46 49 52 58 62 66 69 71 72 71 71 72 74 75 76 77 76 75 74 71 69 68 65 60 51 41 37 34 28 25 27 31 38 38 41 46
76 76 76 77 77 77 76 77 77 80 83 84 85 86 86 87 85 83 81 77 73 67 56 46 43 46 51 55 59 63 66 69 71 71 70 68 65 62 63 65 67 68 68 68 67 67 65 62 59 55 48 38 31 29 27 27 27 23 24 33 39 45 50
77 77 77 77 77 77 78 77 78 81 83 85 86 86 87 87 86 83 80 76 70 63 52 44 43 49 55 59 62 65 67 67 67 65 61 57 52 48 48 50 53 55 57 58 58 57 57 54 48 40 32 25 23 23 21 22 24 22 21 26 34 39 41
77 77 77 78 79 79 79 79 79 82 85 86 88 89 88 87 86 83 78 74 67 58 48 42 44 49 55 59 63 64 65 67 66 63 59 53 47 43 39 37 37 37 39 42 43 42 40 36 31 24 20 21 21 21 22 22 21 24 26 27 34 36 31
78 78 78 79 80 81 81 81 81 84 87 88 91 94 92 87 86 84 78 71 62 53 47 45 48 53 56 60 63 65 66 68 67 65 61 55 49 44 39 36 32 29 26 25 25 25 23 21 21 20 20 21 23 25 27 27 28 31 32 37 53 59 50
80 79 80 80 81 82 83 83 83 87 90 90 93 98 96 89 87 83 77 68 58 51 50 51 53 56 59 63 65 67 69 70 69 67 62 55 49 43 39 36 32 29 27 25 24 24 24 22 22 24 25 24 26 28 26 28 33 33 34 46 61 62 59
82 81 81 81 82 82 84 85 86 90 92 90 93 99 97 90 86 82 75 67 60 56 56 57 60 61 64 68 70 72 74 73 69 64 57 49 43 39 39 38 35 35 34 33 33 32 31 30 28 27 28 26 26 27 24 28 33 29 36 55 61 51 49
83 83 82 82 83 85 87 89 90 92 92 89 93 100 98 90 83 79 75 71 67 68 68 66 68 71 73 75 76 77 75 69 62 56 48 42 39 38 41 41 38 38 37 35 37 36 33 33 29 28 29 28 29 29 25 28 33 30 37 53 57 48 42
85 84 84 84 86 89 92 94 94 93 90 87 92 100 99 90 82 77 77 76 77 82 84 80 78 80 81 81 80 77 70 60 54 49 43 41 39 40 43 42 38 37 36 35 37 36 34 34 32 33 39 41 40 38 32 31 31 28 34 46 51 50 41
87 88 90 91 92 94 95 96 94 92 88 86 91 100 99 91 80 73 73 78 82 85 87 86 83 83 83 81 78 71 63 54 49 47 43 43 43 43 43 40 36 36 37 36 37 37 40 43 43 44 50 51 47 41 36 34 30 24 28 35 43 51 50
93 96 98 98 98 98 96 94 93 92 89 87 92 100 99 92 82 71 68 74 81 85 86 84 82 82 81 78 72 64 58 53 51 49 47 47 46 45 42 36 33 35 37 39 41 45 52 57 56 55 54 49 46 41 34 32 31 27 27 28 31 41 46
99 100 101 100 100 99 96 94 93 93 91 90 95 100 99 93 86 76 68 68 73 77 79 79 80 81 79 73 66 61 59 58 57 53 51 49 44 38 35 31 30 33 39 48 55 60 66 66 62 60 55 45 40 40 35 32 33 30 29 29 28 30 33
100 100 100 100 100 100 99 97 97 95 92 93 97 100 100 97 90 82 74 69 67 68 71 76 80 81 76 69 65 63 63 63 60 55 49 44 37 32 30 29 30 34 41 52 59 62 68 68 60 58 57 44 33 34 34 34 35 32 30 32 31 29 28
100 100 100 100 99 100 101 100 100 97 94 95 99 101 100 100 95 87 81 79 76 73 74 79 82 80 74 70 70 73 72 67 59 52 45 38 34 32 30 30 33 36 39 45 48 49 59 66 58 50 49 40 31 32 35 34 36 37 35 36 36 34 32
100 100 100 99 98 99 101 101 100 99 97 98 100 100 100 101 98 92 88 86 86 84 84 86 86 82 78 78 82 87 85 73 59 51 45 41 37 34 32 32 34 34 34 37 38 39 48 59 54 43 40 39 36 38 40 39 41 44 44 43 42 41 39
100 100 99 97 97 98 100 100 101 101 101 100 101 100 100 101 100 97 95 94 95 95 92 92 91 88 87 89 93 97 91 75 61 56 53 49 44 38 35 34 34 33 34 37 39 39 44 51 48 42 42 43 42 45 50 49 46 50 56 58 56 55 54
99 99 97 96 96 98 100 101 100 100 98 98 99 100 100 100 101 100 100 100 100 99 97 97 97 97 98 99 100 101 94 77 65 64 63 58 53 46 42 40 39 39 40 42 43 45 47 50 49 48 49 50 49 53 60 58 50 53 65 74 74 71 67
100 99 97 96 96 97 98 99 96 93 93 96 99 100 100 100 99 100 100 100 100 99 100 101 100 101 102 101 100 101 99 88 79 77 73 66 59 54 49 47 46 45 46 47 48 50 52 54 56 57 57 56 57 62 66 65 59 60 68 77 81 78 71
100 100 100 99 99 98 97 96 93 90 91 94 98 100 101 100 99 99 100 100 100 100 100 100 100 102 102 100 97 99 100 95 91 87 81 73 66 60 56 53 51 49 50 52 54 55 56 57 59 61 62 62 63 67 71 70 66 65 70 77 79 77 74
101 101 101 101 101 100 98 96 95 95 94 94 97 100 101 100 101 100 100 101 100 100 101 100 101 102 101 98 96 95 95 93 91 87 82 77 72 66 61 57 56 56 57 58 59 59 60 60 60 63 67 68 67 69 74 75 71 67 72 79 80 76 74
98 100 100 100 101 101 100 98 96 97 97 97 98 101 100 100 101 101 101 101 100 100 101 101 99 100 99 96 94 92 90 88 85 81 79 78 74 69 65 63 63 64 64 64 64 64 64 63 63 64 67 69 69 69 72 78 78 74 75 80 83 82 80
93 95 97 99 100 100 101 100 98 99 100 100 100 101 101 100 101 101 101 101 100 100 100 99 96 94 92 89 88 86 85 83 80 77 76 76 73 70 69 69 71 72 72 71 70 68 67 65 66 66 66 68 70 70 72 77 81 80 81 84 84 83 83
92 94 94 97 100 100 100 101 100 100 101 101 101 101 101 100 100 101 101 99 97 95 94 93 92 89 87 85 84 83 82 81 78 77 77 77 77 77 77 78 78 78 77 75 73 72 71 69 68 69 70 72 75 77 78 81 83 83 84 85 83 80 80
90 95 95 96 100 101 100 100 100 100 100 101 101 100 100 100 100 101 102 100 97 94 91 90 91 90 87 85 84 84 83 83 82 83 84 85 85 87 88 87 84 82 80 78 77 75 74 72 72 72 73 76 80 81 82 83 83 82 83 83 82 80 78
90 96 97 98 100 100 99 99 100 100 100 100 100 100 100 101 100 100 101 101 100 98 96 94 94 93 91 89 87 87 88 89 89 90 90 90 90 90 89 89 86 84 82 81 79 78 76 75 76 76 76 79 83 84 83 84 84 83 84 85 84 82 81

ECMWFFLT1_925_rhum_360.txt.gz
RH
62 63 63 62 64 69 73 73 73 73 76 81 83 84 85 84 82 80 79 79 79 80 81 81 82 83 83 86 88 89 91 93 95 97 98 99 96 91 88 87 88 88 85 79 72 64 57 48 36 40 58 73 78 82 88 91 93 95 97 96 93 92 91
63 63 64 65 66 69 73 74 74 75 77 79 81 82 83 83 81 80 79 79 79 80 81 81 81 81 81 84 86 88 90 92 93 95 97 98 97 95 92 89 89 88 87 85 76 65 59 51 41 40 51 67 78 82 87 92 93 94 96 94 93 92 89
63 63 63 66 67 69 72 74 75 76 77 78 79 80 82 82 81 81 80 80 80 80 82 82 82 82 81 84 86 87 88 91 93 94 96 97 96 95 93 90 90 87 87 89 82 71 64 58 51 44 44 59 77 83 86 92 93 93 93 91 90 89 86
63 64 64 65 67 68 70 72 74 76 77 78 79 80 81 81 81 80 80 80 80 82 83 83 83 82 82 84 85 85 86 87 91 93 95 96 96 96 94 91 91 88 87 88 84 77 71 63 57 49 43 53 74 87 89 91 93 93 92 89 86 84 83
65 65 65 65 66 67 69 71 73 75 77 78 79 80 81 81 81 81 81 81 81 81 82 83 83 82 83 85 85 85 84 84 87 91 94 96 96 97 96 94 93 91 88 87 85 82 77 71 65 60 53 50 63 84 93 92 92 93 91 88 84 82 80
66 66 66 66 67 68 70 72 74 75 76 77 78 80 80 80 81 81 81 81 81 82 83 83 83 82 83 84 84 84 84 83 85 88 91 95 96 97 98 97 96 95 91 88 87 85 83 80 75 72 68 59 56 69 85 89 89 87 87 88 85 82 79
68 68 68 68 69 71 73 74 75 75 76 78 79 80 80 80 81 81 81 81 81 82 83 83 83 83 82 82 83 83 82 83 84 86 88 92 95 98 99 99 98 96 93 91 90 89 87 86 83 80 77 69 58 61 73 81 82 80 78 80 82 81 77
71 71 71 72 72 74 75 75 76 77 78 79 80 80 80 80 80 81 81 82 82 83 83 83 82 82 81 81 81 81 81 81 83 86 87 89 93 98 99 99 99 98 95 93 93 92 91 90 89 85 81 73 64 61 65 68 71 72 70 68 70 73 71
75 75 75 75 76 77 78 78 78 79 79 80 80 80 80 80 81 82 83 83 84 84 84 83 81 80 80 80 79 78 79 78 80 84 87 87 90 96 98 97 99 99 97 96 95 95 95 94 93 89 85 79 69 59 56 54 57 63 64 63 63 64 64
79 79 79 79 79 79 79 79 80 80 81 81 80 80 81 81 81 82 83 84 85 85 84 83 81 80 79 79 79 79 78 76 75 78 83 86 87 91 95 96 98 99 98 96 96 95 95 96 95 90 87 82 72 61 54 50 51 55 59 64 67 65 64
83 82 82 82 81 81 81 81 81 81 81 81 81 80 80 81 82 82 82 83 83 84 85 83 82 82 82 81 81 79 77 74 71 72 77 82 84 87 90 93 95 98 97 96 95 94 93 93 92 90 88 83 76 68 59 52 52 56 61 66 69 69 67
85 85 84 84 83 83 82 82 82 82 82 82 81 80 80 80 81 81 80 80 81 84 86 86 85 85 84 83 81 78 76 73 71 71 74 79 83 86 89 91 91 92 93 93 93 94 93 91 89 90 89 83 76 70 64 59 58 60 62 64 65 68 68
87 87 86 85 85 84 84 83 83 83 83 82 80 79 78 79 79 81 82 83 84 86 88 89 89 88 86 85 82 79 78 76 74 73 75 79 84 86 89 91 91 89 88 88 89 90 90 89 87 87 85 80 75 72 71 68 67 66 65 66 69 70 69
88 88 87 86 86 85 85 85 84 83 82 81 79 78 79 80 82 84 86 87 88 89 89 90 91 90 88 87 85 82 80 78 75 74 76 80 85 87 89 90 90 89 88 87 86 87 85 83 82 79 77 76 76 74 71 69 70 72 72 72 74 74 70
89 89 88 87 87 87 87 86 85 83 82 81 80 80 81 82 84 87 89 90 91 91 91 92 93 92 91 89 86 84 80 75 72 72 76 81 86 89 89 89 89 89 87 86 85 83 81 79 77 75 74 75 75 74 72 71 73 76 77 76 76 73 68
88 89 89 88 88 88 88 87 85 84 83 82 82 83 84 86 88 91 93 93 93 93 93 93 92 93 92 90 87 85 80 73 68 69 74 81 88 90 90 90 90 88 87 86 85 84 82 80 79 78 78 78 78 79 80 80 81 81 77 75 75 74 70
88 88 89 89 89 89 88 87 86 86 86 85 85 86 89 91 94 96 96 96 95 95 94 92 92 92 92 90 87 85 80 71 66 67 72 79 86 89 89 89 89 89 89 90 89 89 89 87 87 87 86 86 85 85 86 85 84 83 77 74 76 77 73
89 89 89 89 88 89 89 89 88 88 89 88 88 91 94 96 97 99 99 98 97 96 94 93 93 93 93 91 87 84 79 71 67 69 71 75 81 85 86 87 87 88 90 91 92 93 92 92 93 92 92 93 92 91 89 86 83 81 76 71 70 72 73
88 88 89 89 89 89 89 90 89 89 89 89 90 93 97 99 99 99 100 99 98 96 94 94 94 93 92 90 86 84 80 72 68 71 72 73 76 81 84 86 86 86 88 89 90 92 91 92 93 93 94 95 95 93 91 87 82 78 73 67 64 64 73
89 89 90 90 91 90 90 91 91 90 89 90 90 92 96 100 100 100 100 100 98 96 95 95 94 92 91 89 88 87 83 75 72 74 75 75 77 79 82 84 84 84 85 86 87 88 89 89 91 92 93 94 94 92 88 84 79 74 68 63 59 59 63
93 93 93 92 93 94 93 93 92 92 92 92 92 93 96 99 100 100 100 100 98 97 96 95 94 92 91 91 90 88 84 78 76 78 79 78 79 80 80 81 82 82 81 81 83 84 86 88 90 92 92 91 88 85 80 74 69 66 63 57 55 57 56
96 96 97 95 95 96 96 94 92 91 91 92 93 95 98 100 100 100 100 100 99 98 97 96 95 93 91 91 91 89 86 82 79 79 80 80 80 81 81 81 81 79 77 77 78 80 84 86 87 88 88 85 81 76 70 65 60 58 58 56 55 57 57
96 97 97 96 94 94 95 94 92 89 88 89 91 94 97 100 100 100 100 100 100 99 98 97 95 93 91 91 91 91 89 86 82 78 78 81 81 82 84 83 80 77 74 74 75 78 83 84 82 80 79 75 71 66 62 60 60 60 60 59 58 56 55
95 96 96 94 93 92 93 94 92 90 89 90 90 91 94 97 99 100 100 100 100 100 99 98 96 93 92 92 92 92 90 90 87 83 82 84 84 85 85 84 81 78 75 76 78 80 83 84 80 73 69 65 62 60 58 58 61 63 63 61 59 56 53
95 95 95 94 93 92 92 93 93 90 89 90 91 92 93 96 97 99 100 100 100 100 100 99 97 95 93 93 94 94 95 96 96 93 90 89 89 89 87 84 83 81 78 79 82 82 83 84 80 72 67 64 63 62 60 58 57 57 56 53 51 48 44
97 96 96 95 94 93 93 93 92 89 88 90 92 94 95 96 95 95 97 99 100 100 100 100 99 96 95 95 97 99 99 100 100 99 96 94 93 91 89 87 85 83 80 80 81 81 83 83 80 75 73 72 69 65 60 56 52 47 44 41 37 34 32
98 99 99 98 98 97 95 95 94 93 94 96 97 96 97 97 96 96 97 99 100 100 100 100 99 98 97 98 99 100 100 100 100 100 99 97 95 92 88 87 84 80 78 78 80 82 83 81 79 79 79 76 71 67 60 53 48 43 41 40 36 34 33
99 99 100 99 99 99 98 97 96 98 99 100 99 99 98 98 99 99 99 99 100 100 100 100 100 99 99 100 100 100 100 99 100 101 100 97 95 91 87 85 83 81 79 79 81 83 83 82 82 81 79 77 74 69 61 55 52 49 47 47 46 45 46
100 100 100 100 100 100 100 100 99 99 101 100 99 100 100 99 100 100 100 100 100 100 100 100 100 100 100 100 100 100 100 100 100 101 99 96 94 90 87 86 84 83 82 81 82 83 82 82 84 82 79 79 76 71 65 61 60 59 59 61 63 60 59
94 94 94 98 99 96 97 101 100 97 99 100 98 96 97 100 100 99 99 100 99 100 100 100 100 100 100 100 100 100 100 100 100 100 98 96 93 89 87 86 85 85 84 83 83 83 81 82 84 83 81 79 77 76 75 74 71 69 70 74 76 74 72
83 81 81 88 93 88 86 92 93 91 94 97 93 89 92 100 101 99 99 100 99 100 100 100 100 100 99 100 100 100 99 99 99 98 97 97 96 92 88 87 88 87 87 86 86 85 82 82 82 82 82 81 80 83 86 86 83 81 79 80 82 83 82
83 79 76 79 85 85 84 86 87 89 91 91 89 89 91 96 99 98 99 100 100 100 100 100 100 100 99 100 100 100 99 99 99 99 97 97 98 97 93 91 91 90 89 88 87 85 84 84 84 85 85 86 87 89 91 91 89 87 84 83 83 83 84
85 82 78 79 82 85 88 88 88 90 91 90 91 94 94 93 95 98 100 100 100 100 100 100 100 100 99 100 100 99 100 100 100 101 100 99 99 100 97 95 93 91 90 88 86 85 85 87 88 89 90 91 91 90 90 90 89 87 85 86 85 83 82
84 81 80 81 82 82 85 86 86 88 91 92 94 97 97 95 94 96 98 99 100 100 100 101 101 100 100 100 101 101 101 101 101 101 101 100 100 100 99 98 95 94 93 91 89 89 90 91 91 91 91 91 91 90 90 90 89 88 87 87 87 86 84
81 80 81 84 84 83 85 86 84 86 93 98 99 99 98 97 94 93 95 98 99 99 98 98 99 100 99 100 100 100 100 100 100 100 100 100 100 100 99 99 97 97 95 92 91 91 91 90 90 88 87 88 89 90 91 91 91 91 89 87 86 86 86
81 80 83 86 87 87 89 89 86 87 94 100 101 99 98 97 94 94 95 95 96 97 98 97 97 98 97 97 97 97 98 98 99 99 98 98 99 99 99 98 97 97 96 93 92 91 90 89 89 88 88 90 91 91 90 89 89 90 89 88 87 86 85